Location: downtown San Diego
(32.7310°N, 117.1990°W)
Time: 08:26:08
(UTC-08:00)

USA 267 - Pass Details

Date: 19 May 2017
Orbit: 1099 x 1109 km, 123.0° (Epoch: 17 November)

Event Time Altitude Azimuth Distance (km) Brightness Sun altitude
Rises 21:36:31 0° 48° (NE) 3,930 6.1 -20.6°
Reaches altitude 10° 21:39:07 10° 54° (NE) 2,968 5.4 -21.0°
Maximum altitude 21:45:24 48° 128° (SE) 1,415 3.4 -22.0°
Drops below altitude 10° 21:51:38 10° 200° (SSW) 2,950 5.3 -22.9°
Sets 21:54:13 0° 206° (SSW) 3,903 6.0 -23.3°
